Plant City, FL

7:16 AM EDT on April 27, 2017 (GMT -0400)
Plant City Municipal

Weather History for KPCM - February, 2014

Change the Weather History Date:

Wednesday, February 12, 2014

  Actual Average Record
Temperature  
Mean Temperature 68 °F -  
Max Temperature 80 °F 73 °F 87 °F (1945)
Min Temperature 57 °F 47 °F -25 °F (2015)
Cooling Degree Days 4    
Growing Degree Days 18 (Base 50)    
Moisture  
Dew Point 58 °F    
Average Humidity 60    
Maximum Humidity 100    
Minimum Humidity 42    
Precipitation  
Precipitation 0.53 in - - ()
Sea Level Pressure  
Sea Level Pressure 29.93 in    
Wind  
Wind Speed 6 mph (SE)    
Max Wind Speed 20 mph    
Max Gust Speed 37 mph    
Visibility 6 miles    
Events Fog , Rain    
Averages and records for this station are not official NWS values.
T = Trace of Precipitation, MM = Missing Value Source: NWS Daily Summary

Daily Weather History Graph

Daily Weather History Graph

Search for Another Location

Airport or City:

Trip Planner

Search our weather history database for the weather conditions in past years. The results will help you decide how hot, cold, wet, or windy it might be!

Date:

Astronomy

Feb. 12, 2014 Rise Set
Actual Time 7:08 AM EST 6:17 PM EST
Civil Twilight 6:44 AM EST 6:41 PM EST
Nautical Twilight 6:16 AM EST 7:09 PM EST
Astronomical Twilight 5:49 AM EST 7:36 PM EST
Moon 4:33 PM EST (2/12) 5:20 AM EST (2/12)
Length of Visible Light 11h 57m
Length of Day
11h 08m
Waxing Gibbous, 95% of the Moon is Illuminated
Feb 12
Waxing Gibbous
Feb 14
Full
Feb 22
Last Quarter
Mar 1
New
Mar 8
First Quarter

Hourly Weather History & Observations

Time (EST) Temp. Heat Index Dew Point Humidity Pressure Visibility Wind Dir Wind Speed Gust Speed Precip Events Conditions
12:15 AM 60.8 °F - 57.2 °F 88% 30.07 in 10.0 mi NNE 3.5 mph - N/A   Clear
12:35 AM 60.8 °F - 59.0 °F 94% 30.07 in 10.0 mi NE 3.5 mph - N/A   Clear
12:55 AM 60.8 °F - 57.2 °F 88% 30.06 in 10.0 mi NE 3.5 mph - N/A   Clear
1:15 AM 59.0 °F - 59.0 °F 100% 30.06 in 7.0 mi NE 3.5 mph - N/A   Clear
1:35 AM 60.8 °F - - N/A% 30.05 in 7.0 mi NNE 3.5 mph - N/A   Clear
1:55 AM 59.0 °F - - N/A% 30.05 in 7.0 mi NNE 3.5 mph - N/A   Clear
2:15 AM 59.0 °F - - N/A% 30.04 in 7.0 mi NNE 3.5 mph - N/A   Clear
2:35 AM 59.0 °F - - N/A% 30.03 in 7.0 mi Calm Calm - N/A   Clear
2:55 AM 57.2 °F - - N/A% 30.02 in 5.0 mi Calm Calm - N/A   Haze
3:15 AM 57.2 °F - - N/A% 30.02 in 5.0 mi NNE 3.5 mph - N/A   Haze
3:35 AM 57.2 °F - - N/A% 30.01 in 4.0 mi North 3.5 mph - N/A   Haze
3:55 AM 57.2 °F - - N/A% 30.00 in 4.0 mi NNE 3.5 mph - N/A   Haze
4:15 AM 59.0 °F - - N/A% 30.01 in 1.0 mi NE 5.8 mph - N/A   Overcast
4:35 AM 59.0 °F - - N/A% 30.00 in 0.8 mi NE 6.9 mph - N/A   Overcast
4:55 AM 59.0 °F - - N/A% 30.01 in 0.5 mi NE 3.5 mph - N/A Fog Fog
5:15 AM 59.0 °F - - N/A% 30.01 in 0.8 mi ENE 3.5 mph - N/A   Overcast
5:35 AM 60.8 °F - - N/A% 30.01 in 0.8 mi NE 5.8 mph - N/A   Overcast
5:55 AM 60.8 °F - - N/A% 30.01 in 0.8 mi ENE 4.6 mph - N/A   Overcast
6:15 AM 60.8 °F - - N/A% 30.01 in 0.8 mi ENE 6.9 mph - N/A   Overcast
6:35 AM 60.8 °F - - N/A% 30.01 in 0.5 mi ENE 5.8 mph - N/A Fog Fog
6:55 AM 60.8 °F - - N/A% 30.02 in 0.5 mi ENE 3.5 mph - N/A Fog Fog
7:15 AM 60.8 °F - - N/A% 30.02 in 0.2 mi ENE 3.5 mph - N/A Fog Fog
7:35 AM 62.6 °F - - N/A% 30.02 in 0.2 mi East 3.5 mph - N/A Fog Fog
7:55 AM 62.6 °F - - N/A% 30.02 in 0.2 mi Calm Calm - N/A Fog Fog
8:15 AM 62.6 °F - - N/A% 30.03 in 0.2 mi East 3.5 mph - N/A Fog Fog
8:35 AM 62.6 °F - - N/A% 30.03 in 0.2 mi East 3.5 mph - N/A Fog Fog
8:55 AM 62.6 °F - - N/A% 30.03 in 0.2 mi East 3.5 mph - N/A Fog Fog
9:15 AM 64.4 °F - - N/A% 30.02 in 0.8 mi ESE 6.9 mph - N/A   Overcast
9:35 AM 64.4 °F - - N/A% 30.02 in 2.0 mi SE 6.9 mph - N/A   Overcast
9:55 AM 64.4 °F - - N/A% 30.01 in 4.0 mi SE 8.1 mph - N/A   Haze
10:15 AM 68.0 °F - - N/A% 30.00 in 7.0 mi SE 6.9 mph - N/A   Scattered Clouds
10:35 AM 69.8 °F - 60.8 °F 73% 30.00 in 5.0 mi SSE 9.2 mph - N/A   Haze
10:55 AM 71.6 °F - 59.0 °F 64% 29.99 in 7.0 mi SSE 10.4 mph - N/A   Clear
11:15 AM 73.4 °F - 57.2 °F 57% 29.98 in 7.0 mi SSE 10.4 mph - N/A   Clear
11:35 AM 75.2 °F - 57.2 °F 53% 29.97 in 10.0 mi South 10.4 mph - N/A   Clear
11:55 AM 77.0 °F - 57.2 °F 50% 29.96 in 7.0 mi South 11.5 mph - N/A   Scattered Clouds
12:15 PM 77.0 °F - 57.2 °F 50% 29.95 in 7.0 mi South 9.2 mph - N/A   Mostly Cloudy
12:35 PM 77.0 °F - 57.2 °F 50% 29.94 in 10.0 mi South 12.7 mph - N/A   Mostly Cloudy
12:55 PM 78.8 °F - 57.2 °F 47% 29.92 in 7.0 mi South 15.0 mph 18.4 mph N/A   Mostly Cloudy
1:15 PM 78.8 °F - 55.4 °F 44% 29.90 in 7.0 mi South 17.3 mph 24.2 mph N/A   Scattered Clouds
1:35 PM 80.6 °F 80.8 °F 57.2 °F 45% 29.87 in 7.0 mi South 10.4 mph 23.0 mph N/A   Clear
1:55 PM 80.6 °F 80.5 °F 55.4 °F 42% 29.87 in 10.0 mi South 18.4 mph 24.2 mph N/A   Clear
2:15 PM 80.6 °F 80.5 °F 55.4 °F 42% 29.86 in 10.0 mi SSW 11.5 mph 23.0 mph N/A   Clear
2:35 PM 80.6 °F 80.8 °F 57.2 °F 45% 29.86 in 10.0 mi South 12.7 mph 17.3 mph N/A   Scattered Clouds
2:55 PM 80.6 °F 80.8 °F 57.2 °F 45% 29.84 in 10.0 mi SSW 12.7 mph 20.7 mph N/A   Clear
3:15 PM 80.6 °F 81.1 °F 59.0 °F 48% 29.83 in 10.0 mi SSW 8.1 mph - N/A   Scattered Clouds
3:35 PM 80.6 °F 81.1 °F 59.0 °F 48% 29.82 in 10.0 mi SSW 11.5 mph 19.6 mph N/A   Scattered Clouds
3:55 PM 80.6 °F 81.1 °F 59.0 °F 48% 29.82 in 10.0 mi SSW 16.1 mph 25.3 mph N/A   Mostly Cloudy
4:15 PM 78.8 °F - 60.8 °F 54% 29.81 in 10.0 mi SSW 16.1 mph 20.7 mph N/A   Mostly Cloudy
4:35 PM 77.0 °F - 62.6 °F 61% 29.81 in 7.0 mi SSW 11.5 mph 27.6 mph N/A Rain Light Rain
4:55 PM 73.4 °F - 64.4 °F 73% 29.86 in 7.0 mi West 19.6 mph 36.8 mph 0.02 in Rain Rain
5:15 PM 64.4 °F - 62.6 °F 94% 29.88 in 0.8 mi WNW 15.0 mph 21.9 mph 0.02 in   Overcast
5:35 PM 64.4 °F - - N/A% 29.85 in 4.0 mi NW 8.1 mph 21.9 mph 0.06 in Rain Rain
5:55 PM 64.4 °F - - N/A% 29.88 in 10.0 mi WSW 3.5 mph - 0.10 in Rain Rain
6:15 PM 64.4 °F - - N/A% 29.87 in 7.0 mi WNW 5.8 mph - 0.03 in Rain Rain
6:35 PM 62.6 °F - - N/A% 29.88 in 10.0 mi West 4.6 mph - 0.05 in Rain Light Rain
6:55 PM 62.6 °F - - N/A% 29.88 in 10.0 mi WNW 4.6 mph - 0.07 in Rain Rain
7:15 PM 62.6 °F - - N/A% 29.89 in 7.0 mi North - - 0.02 in Rain Rain
7:35 PM 62.6 °F - - N/A% 29.88 in 7.0 mi West 3.5 mph - 0.09 in Rain Rain
7:55 PM 62.6 °F - - N/A% 29.86 in 5.0 mi Calm Calm - 0.15 in Rain Rain
8:15 PM 62.6 °F - - N/A% 29.84 in 7.0 mi SSE 3.5 mph - 0.03 in Rain Light Rain
8:35 PM 62.6 °F - - N/A% 29.82 in 10.0 mi SE 4.6 mph - 0.06 in Rain Light Rain
8:55 PM 64.4 °F - - N/A% 29.79 in 10.0 mi SSE 8.1 mph - 0.08 in   Mostly Cloudy
9:15 PM 64.4 °F - - N/A% 29.78 in 10.0 mi South 9.2 mph - 0.02 in   Scattered Clouds
9:35 PM 62.6 °F - - N/A% 29.78 in 10.0 mi South 6.9 mph - 0.03 in   Clear
9:55 PM 62.6 °F - - N/A% 29.78 in 10.0 mi South 6.9 mph - 0.05 in   Clear
10:15 PM 64.4 °F - - N/A% 29.77 in 10.0 mi South 6.9 mph - 0.01 in   Clear
10:35 PM 64.4 °F - - N/A% 29.76 in 10.0 mi South 4.6 mph - 0.02 in   Clear
10:55 PM 64.4 °F - - N/A% 29.76 in 10.0 mi South 9.2 mph - 0.03 in   Clear
11:15 PM 64.4 °F - - N/A% 29.75 in 10.0 mi South 9.2 mph - 0.01 in   Clear
11:35 PM 64.4 °F - - N/A% 29.75 in 10.0 mi SSW 8.1 mph - 0.02 in   Clear
11:55 PM 64.4 °F - - N/A% 29.75 in 10.0 mi SSW 8.1 mph - 0.03 in   Clear